Location: St. Louis
(38.6270°N, 90.1994°W)
Time: 20:22:04
(UTC-06:00)

Vanguard 2 - Pass Details

Date: 07 December 2021
Orbit: 553 x 2936 km, 32.9° (Epoch: 21 January)

Event Time Altitude Azimuth Distance (km) Brightness Sun altitude
Rises 17:03:52 0° 268° (W) 3,494 12.4 -5.1°
Reaches altitude 10° 17:06:23 10° 256° (WSW) 2,801 12.1 -5.6°
Maximum altitude 17:12:11 28° 199° (SSW) 2,289 10.5 -6.6°
Drops below altitude 10° 17:20:48 10° 146° (SE) 4,260 11.2 -8.1°
Sets 17:25:42 0° 137° (SE) 5,689 11.7 -9.0°
